DAL694 KDTW-KLAX

Flight info

Callsign DAL694
Flight time 4h 19m
Altitude 34000
Route BARII3 SINKR VHP J80 MCI J24 SLN J102 ALS J44 RSK/N0453F360 J64 PGS DNERO ANJLL4
Aircraft A321/M-SDE3FGHIRWY/LB1

Departure

Time 2026-04-20 00:59
Airport Detroit Metropolitan Wayne County Airport (KDTW)

Arrival

Time 2026-04-20 05:18
Airport Los Angeles International Airport (KLAX)
Time Latitude Longitude Altitude Speed Heading
2026-04-19 23:58 42.20435 -83.36164 647 ft 0 kts 121°
2026-04-20 00:47 42.20440 -83.36174 647 ft 4 kts 121°
2026-04-20 00:47 42.20454 -83.36206 646 ft 4 kts 121°
2026-04-20 00:47 42.20468 -83.36236 647 ft 4 kts 109°
2026-04-20 00:47 42.20468 -83.36264 650 ft 4 kts 39°
2026-04-20 00:48 42.20451 -83.36278 647 ft 4 kts 29°
2026-04-20 00:48 42.20443 -83.36284 648 ft 0 kts 29°
2026-04-20 00:50 42.20466 -83.36267 646 ft 15 kts 29°
2026-04-20 00:50 42.20585 -83.36179 646 ft 20 kts 28°
2026-04-20 00:50 42.20707 -83.36090 646 ft 19 kts 30°
2026-04-20 00:51 42.20820 -83.36005 646 ft 18 kts 29°
2026-04-20 00:51 42.20926 -83.35927 646 ft 17 kts 28°
2026-04-20 00:51 42.21024 -83.35856 646 ft 15 kts 29°
2026-04-20 00:51 42.21112 -83.35790 647 ft 14 kts 29°
2026-04-20 00:52 42.21190 -83.35731 647 ft 10 kts 30°
2026-04-20 00:52 42.21244 -83.35692 647 ft 8 kts 30°
2026-04-20 00:52 42.21308 -83.35646 646 ft 16 kts 27°
2026-04-20 00:52 42.21415 -83.35569 647 ft 17 kts 29°
2026-04-20 00:53 42.21516 -83.35489 647 ft 18 kts 36°
2026-04-20 00:53 42.21549 -83.35325 646 ft 18 kts 88°
2026-04-20 00:53 42.21549 -83.35164 648 ft 16 kts 101°
2026-04-20 00:53 42.21459 -83.35054 646 ft 25 kts 148°
2026-04-20 00:54 42.21302 -83.34930 647 ft 24 kts 162°
2026-04-20 00:54 42.21192 -83.34991 645 ft 15 kts 209°
2026-04-20 00:54 42.21120 -83.35045 646 ft 10 kts 209°
2026-04-20 00:54 42.21067 -83.35084 647 ft 8 kts 208°
2026-04-20 00:55 42.21015 -83.35122 646 ft 12 kts 208°
2026-04-20 00:55 42.20952 -83.35168 646 ft 10 kts 208°
2026-04-20 00:55 42.20893 -83.35210 646 ft 9 kts 206°
2026-04-20 00:55 42.20849 -83.35215 646 ft 0 kts 162°
2026-04-20 00:57 42.20826 -83.35182 645 ft 13 kts 123°
2026-04-20 00:57 42.20834 -83.35087 644 ft 7 kts 28°
2026-04-20 00:58 42.20836 -83.35086 644 ft 0 kts 28°
2026-04-20 00:58 42.20858 -83.35070 644 ft 18 kts 28°
2026-04-20 00:58 42.21183 -83.34831 643 ft 87 kts 28°
2026-04-20 00:58 42.21884 -83.34315 647 ft 140 kts 28°
2026-04-20 00:59 42.22890 -83.33621 735 ft 173 kts 28°
2026-04-20 00:59 42.23935 -83.32948 1364 ft 166 kts 13°
2026-04-20 00:59 42.25052 -83.32803 2097 ft 160 kts 350°
2026-04-20 00:59 42.26125 -83.33205 2639 ft 164 kts 340°
2026-04-20 01:00 42.27277 -83.33718 2793 ft 186 kts 341°
2026-04-20 01:00 42.28578 -83.34299 2993 ft 209 kts 341°
2026-04-20 01:00 42.30041 -83.34952 3341 ft 230 kts 341°
2026-04-20 01:00 42.31588 -83.35642 4099 ft 236 kts 341°
2026-04-20 01:01 42.33155 -83.36339 4967 ft 238 kts 341°
2026-04-20 01:01 42.34738 -83.37046 5803 ft 241 kts 340°
2026-04-20 01:01 42.36334 -83.37761 6605 ft 243 kts 339°
2026-04-20 01:01 42.37943 -83.38525 6967 ft 245 kts 333°
2026-04-20 01:02 42.39377 -83.39734 7037 ft 243 kts 318°
2026-04-20 01:02 42.40510 -83.41419 7045 ft 242 kts 307°
2026-04-20 01:02 42.41539 -83.43230 7045 ft 242 kts 308°
2026-04-20 01:02 42.42573 -83.45026 7046 ft 242 kts 308°
2026-04-20 01:03 42.43609 -83.46819 7049 ft 244 kts 309°
2026-04-20 01:03 42.44661 -83.48640 7050 ft 245 kts 309°
2026-04-20 01:03 42.45696 -83.50471 7048 ft 245 kts 304°
2026-04-20 01:03 42.46408 -83.52571 7048 ft 248 kts 288°
2026-04-20 01:04 42.46604 -83.54919 7485 ft 255 kts 270°
2026-04-20 01:04 42.46493 -83.57316 8351 ft 254 kts 270°
2026-04-20 01:04 42.46393 -83.59712 8906 ft 256 kts 270°
2026-04-20 01:04 42.46296 -83.62105 9029 ft 254 kts 270°
2026-04-20 01:05 42.46199 -83.64485 9041 ft 253 kts 270°
2026-04-20 01:05 42.46100 -83.66863 9050 ft 253 kts 270°
2026-04-20 01:05 42.46000 -83.69231 9050 ft 253 kts 270°
2026-04-20 01:05 42.45900 -83.71612 9049 ft 253 kts 270°
2026-04-20 01:06 42.45800 -83.73986 9053 ft 253 kts 270°
2026-04-20 01:06 42.45698 -83.76377 9225 ft 257 kts 270°
2026-04-20 01:06 42.45595 -83.78795 10069 ft 255 kts 270°
2026-04-20 01:06 42.45492 -83.81241 10439 ft 271 kts 270°
2026-04-20 01:07 42.45382 -83.83895 10577 ft 292 kts 270°
2026-04-20 01:07 42.45261 -83.86721 10826 ft 307 kts 269°
2026-04-20 01:07 42.45133 -83.89636 11386 ft 312 kts 269°
2026-04-20 01:07 42.45000 -83.92565 12085 ft 313 kts 269°
2026-04-20 01:08 42.44866 -83.95516 12750 ft 315 kts 269°
2026-04-20 01:08 42.44731 -83.98497 13422 ft 318 kts 269°
2026-04-20 01:08 42.44594 -84.01493 14074 ft 320 kts 268°
2026-04-20 01:08 42.44455 -84.04510 14643 ft 323 kts 268°
2026-04-20 01:09 42.44317 -84.07549 15232 ft 325 kts 268°
2026-04-20 01:09 42.44176 -84.10627 15807 ft 328 kts 269°
2026-04-20 01:09 42.44034 -84.13723 16377 ft 331 kts 268°
2026-04-20 01:09 42.43887 -84.16841 16944 ft 333 kts 268°
2026-04-20 01:10 42.43736 -84.19981 17510 ft 336 kts 268°
2026-04-20 01:10 42.43428 -84.26346 18603 ft 341 kts 268°
2026-04-20 01:10 42.43274 -84.29556 19084 ft 343 kts 269°
2026-04-20 01:11 42.43128 -84.32786 19596 ft 343 kts 271°
2026-04-20 01:11 42.43188 -84.36003 20083 ft 343 kts 274°
2026-04-20 01:11 42.43277 -84.39241 20566 ft 344 kts 275°
2026-04-20 01:11 42.43364 -84.42485 21055 ft 345 kts 275°
2026-04-20 01:12 42.43453 -84.45738 21535 ft 347 kts 275°
2026-04-20 01:12 42.43539 -84.48956 21997 ft 348 kts 275°
2026-04-20 01:12 42.43626 -84.52241 22462 ft 349 kts 275°
2026-04-20 01:12 42.43710 -84.55531 22919 ft 351 kts 275°
2026-04-20 01:13 42.43791 -84.58837 23371 ft 352 kts 275°
2026-04-20 01:13 42.43871 -84.62158 23805 ft 354 kts 275°
2026-04-20 01:13 42.43954 -84.65493 24152 ft 355 kts 275°
2026-04-20 01:13 42.44038 -84.68843 24505 ft 356 kts 276°
2026-04-20 01:14 42.44121 -84.72198 24859 ft 357 kts 276°
2026-04-20 01:14 42.44204 -84.75568 25174 ft 359 kts 276°
2026-04-20 01:14 42.44288 -84.78958 25474 ft 361 kts 276°
2026-04-20 01:14 42.44369 -84.82367 25767 ft 364 kts 275°
2026-04-20 01:15 42.44449 -84.85804 26064 ft 366 kts 275°
2026-04-20 01:15 42.44526 -84.89255 26355 ft 368 kts 275°
2026-04-20 01:15 42.44601 -84.92724 26640 ft 370 kts 275°
2026-04-20 01:15 42.44676 -84.96217 26925 ft 372 kts 275°
2026-04-20 01:16 42.44752 -84.99728 27202 ft 374 kts 275°
2026-04-20 01:16 42.44828 -85.03266 27476 ft 376 kts 275°
2026-04-20 01:16 42.44903 -85.06813 27756 ft 378 kts 275°
2026-04-20 01:16 42.44979 -85.10376 28050 ft 379 kts 275°
2026-04-20 01:17 42.45056 -85.13948 28308 ft 381 kts 275°
2026-04-20 01:17 42.45131 -85.17543 28550 ft 383 kts 275°
2026-04-20 01:17 42.45204 -85.21157 28787 ft 385 kts 275°
2026-04-20 01:17 42.45273 -85.24787 29019 ft 387 kts 275°
2026-04-20 01:18 42.45342 -85.28432 29253 ft 388 kts 275°
2026-04-20 01:18 42.45410 -85.32099 29492 ft 390 kts 275°
2026-04-20 01:18 42.45475 -85.35776 29717 ft 392 kts 275°
2026-04-20 01:18 42.45540 -85.39480 29940 ft 394 kts 275°
2026-04-20 01:19 42.45606 -85.43192 30211 ft 394 kts 275°
2026-04-20 01:19 42.45672 -85.46886 30543 ft 392 kts 275°
2026-04-20 01:19 42.45738 -85.50569 30801 ft 391 kts 275°
2026-04-20 01:19 42.45804 -85.54259 31024 ft 392 kts 275°
2026-04-20 01:20 42.45871 -85.57946 31240 ft 393 kts 275°
2026-04-20 01:20 42.45934 -85.61647 31451 ft 393 kts 275°
2026-04-20 01:20 42.45991 -85.65356 31660 ft 394 kts 275°
2026-04-20 01:20 42.46044 -85.69067 31872 ft 395 kts 275°
2026-04-20 01:21 42.46098 -85.72791 32073 ft 396 kts 275°
2026-04-20 01:21 42.46154 -85.76522 32289 ft 396 kts 275°
2026-04-20 01:21 42.46210 -85.80245 32498 ft 397 kts 275°
2026-04-20 01:21 42.46265 -85.83978 32699 ft 398 kts 275°
2026-04-20 01:22 42.46317 -85.87719 32907 ft 398 kts 275°
2026-04-20 01:22 42.46368 -85.91470 33112 ft 399 kts 275°
2026-04-20 01:22 42.46418 -85.95232 33307 ft 400 kts 274°
2026-04-20 01:22 42.46466 -85.99000 33498 ft 400 kts 274°
2026-04-20 01:23 42.46514 -86.02780 33685 ft 401 kts 274°
2026-04-20 01:23 42.46561 -86.06566 33869 ft 402 kts 274°
2026-04-20 01:23 42.46608 -86.10331 34049 ft 402 kts 274°
2026-04-20 01:23 42.46657 -86.14143 34213 ft 403 kts 274°
2026-04-20 01:24 42.46764 -86.21725 34255 ft 402 kts 275°
2026-04-20 01:24 42.46848 -86.29350 34258 ft 400 kts 275°
2026-04-20 01:25 42.46929 -86.36813 34257 ft 400 kts 273°
2026-04-20 01:25 42.46041 -86.44270 34263 ft 403 kts 264°
2026-04-20 01:26 42.44911 -86.51703 34261 ft 403 kts 264°
2026-04-20 01:26 42.43773 -86.59123 34261 ft 402 kts 264°
2026-04-20 01:27 42.42638 -86.66538 34272 ft 401 kts 264°
2026-04-20 01:27 42.41699 -86.72675 34276 ft 401 kts 264°
2026-04-20 01:28 42.40561 -86.80059 34281 ft 400 kts 264°
2026-04-20 01:28 42.39422 -86.87432 34277 ft 400 kts 264°
2026-04-20 01:29 42.38275 -86.94803 34251 ft 400 kts 264°
2026-04-20 01:29 42.37128 -87.02153 34257 ft 400 kts 264°
2026-04-20 01:30 42.35977 -87.09484 34266 ft 400 kts 264°
2026-04-20 01:30 42.34809 -87.16894 34278 ft 400 kts 264°
2026-04-20 01:31 42.33652 -87.24193 34282 ft 400 kts 264°
2026-04-20 01:31 42.32475 -87.31586 34281 ft 400 kts 264°
2026-04-20 01:32 42.31300 -87.38920 34258 ft 400 kts 264°
2026-04-20 01:32 42.30129 -87.46228 34257 ft 400 kts 264°
2026-04-20 01:33 42.28941 -87.53583 34251 ft 401 kts 264°
2026-04-20 01:33 42.27748 -87.60936 34247 ft 401 kts 264°
2026-04-20 01:34 42.26552 -87.68293 34250 ft 401 kts 264°
2026-04-20 01:34 42.25353 -87.75647 34210 ft 401 kts 265°
2026-04-20 01:35 42.24149 -87.83006 34223 ft 402 kts 265°
2026-04-20 01:35 42.22933 -87.90373 34230 ft 403 kts 264°
2026-04-20 01:36 42.21736 -87.97761 34235 ft 401 kts 266°
2026-04-20 01:36 42.20878 -88.05169 34242 ft 399 kts 269°
2026-04-20 01:37 42.20153 -88.12573 34240 ft 399 kts 269°
2026-04-20 01:37 42.19364 -88.20025 34260 ft 398 kts 268°
2026-04-20 01:38 42.18518 -88.27407 34256 ft 398 kts 268°
2026-04-20 01:38 42.17656 -88.34773 34262 ft 397 kts 268°
2026-04-20 01:39 42.16806 -88.42121 34267 ft 396 kts 268°
2026-04-20 01:39 42.15967 -88.49397 34253 ft 395 kts 269°
2026-04-20 01:40 42.15112 -88.56701 34276 ft 394 kts 269°
2026-04-20 01:40 42.14255 -88.63970 34287 ft 392 kts 269°
2026-04-20 01:41 42.13404 -88.71222 34289 ft 391 kts 269°
2026-04-20 01:41 42.12550 -88.78457 34287 ft 391 kts 269°
2026-04-20 01:42 42.11686 -88.85692 34257 ft 391 kts 269°
2026-04-20 01:42 42.10822 -88.92909 34276 ft 390 kts 269°
2026-04-20 01:43 42.09959 -89.00112 34281 ft 389 kts 269°
2026-04-20 01:43 42.09087 -89.07299 34299 ft 389 kts 269°
2026-04-20 01:44 42.08208 -89.14474 34303 ft 389 kts 269°
2026-04-20 01:44 42.07331 -89.21654 34303 ft 388 kts 269°
2026-04-20 01:45 42.06449 -89.28816 34290 ft 388 kts 269°
2026-04-20 01:45 42.05559 -89.35959 34300 ft 387 kts 269°
2026-04-20 01:46 42.04672 -89.43100 34304 ft 386 kts 269°
2026-04-20 01:46 42.03779 -89.50209 34304 ft 385 kts 269°
2026-04-20 01:47 42.02884 -89.57315 34304 ft 385 kts 269°
2026-04-20 01:47 42.01987 -89.64409 34301 ft 385 kts 269°
2026-04-20 01:48 42.01080 -89.71506 34296 ft 385 kts 269°
2026-04-20 01:48 42.00172 -89.78601 34296 ft 385 kts 269°
2026-04-20 01:49 41.99264 -89.85689 34294 ft 385 kts 269°
2026-04-20 01:49 41.98351 -89.92777 34266 ft 385 kts 269°
2026-04-20 01:50 41.97433 -89.99848 34262 ft 384 kts 269°
2026-04-20 01:50 41.96511 -90.06906 34276 ft 383 kts 268°
2026-04-20 01:51 41.95588 -90.13953 34285 ft 382 kts 269°
2026-04-20 01:51 41.94668 -90.20978 34293 ft 382 kts 268°
2026-04-20 01:52 41.93737 -90.28007 34298 ft 382 kts 268°
2026-04-20 01:52 41.92806 -90.35026 34298 ft 382 kts 268°
2026-04-20 01:53 41.91871 -90.42048 34271 ft 382 kts 268°
2026-04-20 01:53 41.90931 -90.49054 34282 ft 381 kts 268°
2026-04-20 01:54 41.89982 -90.56058 34295 ft 381 kts 268°
2026-04-20 01:54 41.89030 -90.63053 34291 ft 381 kts 268°
2026-04-20 01:55 41.88074 -90.70055 34300 ft 381 kts 268°
2026-04-20 01:55 41.87116 -90.77048 34250 ft 381 kts 268°
2026-04-20 01:56 41.86159 -90.84038 34280 ft 381 kts 268°
2026-04-20 01:56 41.85196 -90.91021 34287 ft 381 kts 268°
2026-04-20 01:57 41.84226 -90.98005 34292 ft 381 kts 268°
2026-04-20 01:57 41.83262 -91.04932 34293 ft 381 kts 268°
2026-04-20 01:58 41.82284 -91.11908 34303 ft 381 kts 268°
2026-04-20 01:58 41.81299 -91.18883 34280 ft 381 kts 268°
2026-04-20 01:59 41.80312 -91.25869 34291 ft 382 kts 268°
2026-04-20 01:59 41.79325 -91.32851 34294 ft 382 kts 268°
2026-04-20 02:00 41.78325 -91.39833 34297 ft 382 kts 268°
2026-04-20 02:00 41.77314 -91.46838 34301 ft 382 kts 268°
2026-04-20 02:01 41.76308 -91.53831 34240 ft 381 kts 267°
2026-04-20 02:01 41.75299 -91.60814 34310 ft 382 kts 267°
2026-04-20 02:02 41.74290 -91.67780 34318 ft 381 kts 267°
2026-04-20 02:02 41.73273 -91.74749 34302 ft 381 kts 267°
2026-04-20 02:03 41.72256 -91.81703 34304 ft 381 kts 267°
2026-04-20 02:03 41.71229 -91.88653 34310 ft 381 kts 267°
2026-04-20 02:04 41.70195 -91.95604 34285 ft 381 kts 267°
2026-04-20 02:04 41.69162 -92.02567 34291 ft 381 kts 267°
2026-04-20 02:05 41.68126 -92.09537 34296 ft 382 kts 267°
2026-04-20 02:05 41.67078 -92.16508 34299 ft 382 kts 267°
2026-04-20 02:06 41.66027 -92.23475 34301 ft 382 kts 267°
2026-04-20 02:06 41.64978 -92.30442 34269 ft 383 kts 266°
2026-04-20 02:07 41.63918 -92.37426 34280 ft 384 kts 266°
2026-04-20 02:07 41.62853 -92.44417 34290 ft 384 kts 266°
2026-04-20 02:08 41.61785 -92.51412 34292 ft 385 kts 266°
2026-04-20 02:08 41.60711 -92.58418 34299 ft 385 kts 266°
2026-04-20 02:09 41.60168 -92.61920 34301 ft 385 kts 266°
2026-04-20 02:09 41.58613 -92.71908 34275 ft 385 kts 266°
2026-04-20 02:10 41.57526 -92.78925 34282 ft 386 kts 266°
2026-04-20 02:10 41.56434 -92.85952 34281 ft 387 kts 266°
2026-04-20 02:11 41.55328 -92.92985 34288 ft 387 kts 266°
2026-04-20 02:11 41.54216 -93.00031 34291 ft 388 kts 266°
2026-04-20 02:12 41.53107 -93.07014 34256 ft 388 kts 266°
2026-04-20 02:12 41.51986 -93.14078 34269 ft 389 kts 266°
2026-04-20 02:13 41.50851 -93.21195 34284 ft 391 kts 265°
2026-04-20 02:13 41.49717 -93.28233 34302 ft 391 kts 265°
2026-04-20 02:14 41.48572 -93.35316 34299 ft 391 kts 265°
2026-04-20 02:14 41.47422 -93.42402 34298 ft 391 kts 265°
2026-04-20 02:15 41.46273 -93.49534 34305 ft 391 kts 265°
2026-04-20 02:15 41.45126 -93.56618 34308 ft 391 kts 265°
2026-04-20 02:16 41.43971 -93.63649 34306 ft 391 kts 265°
2026-04-20 02:16 41.42940 -93.70731 34302 ft 388 kts 268°
2026-04-20 02:17 41.42132 -93.77826 34310 ft 387 kts 269°
2026-04-20 02:17 41.41469 -93.83752 34268 ft 387 kts 268°
2026-04-20 02:18 41.40485 -93.92013 34274 ft 389 kts 268°
2026-04-20 02:18 41.39607 -93.99122 34284 ft 389 kts 268°
2026-04-20 02:19 41.38725 -94.06237 34285 ft 389 kts 268°
2026-04-20 02:19 41.37837 -94.13355 34292 ft 389 kts 268°
2026-04-20 02:20 41.36951 -94.20469 34259 ft 389 kts 268°
2026-04-20 02:20 41.36062 -94.27584 34266 ft 390 kts 267°
2026-04-20 02:21 41.34716 -94.38273 34268 ft 391 kts 267°
2026-04-20 02:22 41.33808 -94.45414 34278 ft 391 kts 267°
2026-04-20 02:22 41.32896 -94.52547 34286 ft 392 kts 267°
2026-04-20 02:23 41.31978 -94.59694 34251 ft 392 kts 267°
2026-04-20 02:23 41.31058 -94.66841 34268 ft 393 kts 267°
2026-04-20 02:24 41.30132 -94.74007 34274 ft 393 kts 267°
2026-04-20 02:24 41.29199 -94.81175 34277 ft 394 kts 267°
2026-04-20 02:25 41.28267 -94.88301 34283 ft 394 kts 267°
2026-04-20 02:25 41.27322 -94.95491 34255 ft 394 kts 267°
2026-04-20 02:26 41.26375 -95.02674 34264 ft 395 kts 267°
2026-04-20 02:26 41.25416 -95.09867 34270 ft 395 kts 267°
2026-04-20 02:27 41.24452 -95.17060 34273 ft 395 kts 267°
2026-04-20 02:27 41.23487 -95.24257 34277 ft 396 kts 267°
2026-04-20 02:28 41.22516 -95.31451 34255 ft 396 kts 267°
2026-04-20 02:28 41.21535 -95.38633 34264 ft 396 kts 267°
2026-04-20 02:29 41.20551 -95.45832 34275 ft 396 kts 267°
2026-04-20 02:29 41.19569 -95.53015 34280 ft 396 kts 267°
2026-04-20 02:30 41.18585 -95.60226 34280 ft 396 kts 267°
2026-04-20 02:30 41.17596 -95.67413 34274 ft 396 kts 267°
2026-04-20 02:31 41.16510 -95.74587 34246 ft 401 kts 261°
2026-04-20 02:31 41.15102 -95.80474 34243 ft 403 kts 260°
2026-04-20 02:32 41.13414 -95.87561 34251 ft 403 kts 260°
2026-04-20 02:32 41.11728 -95.94642 34254 ft 403 kts 260°
2026-04-20 02:33 41.10030 -96.01739 34272 ft 403 kts 260°
2026-04-20 02:33 41.08327 -96.08838 34271 ft 404 kts 260°
2026-04-20 02:34 41.06624 -96.15925 34258 ft 404 kts 260°
2026-04-20 02:34 41.04914 -96.23007 34265 ft 404 kts 260°
2026-04-20 02:35 41.03191 -96.30093 34273 ft 404 kts 260°
2026-04-20 02:35 41.01469 -96.37172 34278 ft 404 kts 260°
2026-04-20 02:36 40.99745 -96.44257 34277 ft 404 kts 260°
2026-04-20 02:36 40.98012 -96.51330 34237 ft 404 kts 260°
2026-04-20 02:37 40.96282 -96.58364 34248 ft 405 kts 260°
2026-04-20 02:37 40.94540 -96.65444 34257 ft 405 kts 260°
2026-04-20 02:38 40.92795 -96.72522 34269 ft 404 kts 260°
2026-04-20 02:38 40.90943 -96.79545 34294 ft 405 kts 258°
2026-04-20 02:39 40.88946 -96.86489 34260 ft 404 kts 257°
2026-04-20 02:39 40.86932 -96.93428 34264 ft 404 kts 258°
2026-04-20 02:40 40.84950 -97.00352 34259 ft 403 kts 258°
2026-04-20 02:40 40.82975 -97.07299 34256 ft 403 kts 258°
2026-04-20 02:41 40.81001 -97.14216 34259 ft 403 kts 258°
2026-04-20 02:41 40.79008 -97.21147 34254 ft 403 kts 258°
2026-04-20 02:42 40.77013 -97.28070 34244 ft 404 kts 258°
2026-04-20 02:42 40.75022 -97.34990 34241 ft 404 kts 258°
2026-04-20 02:43 40.73022 -97.41913 34253 ft 404 kts 258°
2026-04-20 02:43 40.71010 -97.48842 34254 ft 405 kts 258°
2026-04-20 02:44 40.68990 -97.55767 34254 ft 405 kts 258°
2026-04-20 02:44 40.66973 -97.62682 34220 ft 404 kts 257°
2026-04-20 02:45 40.64982 -97.69481 34237 ft 403 kts 258°
2026-04-20 02:45 40.62966 -97.76337 34292 ft 399 kts 256°
2026-04-20 02:46 40.60979 -97.83099 34242 ft 396 kts 258°
2026-04-20 02:46 40.58995 -97.89847 34236 ft 395 kts 258°
2026-04-20 02:47 40.57007 -97.96589 34233 ft 395 kts 258°
2026-04-20 02:47 40.55016 -98.03294 34234 ft 392 kts 258°
2026-04-20 02:48 40.53022 -98.09966 34228 ft 392 kts 258°
2026-04-20 02:48 40.51032 -98.16632 34225 ft 392 kts 258°
2026-04-20 02:49 40.49054 -98.23290 34217 ft 391 kts 258°
2026-04-20 02:49 40.47066 -98.29951 34215 ft 392 kts 258°
2026-04-20 02:50 40.45072 -98.36603 34176 ft 392 kts 258°
2026-04-20 02:50 40.43070 -98.43268 34193 ft 392 kts 257°
2026-04-20 02:51 40.41054 -98.49925 34196 ft 393 kts 257°
2026-04-20 02:51 40.39041 -98.56586 34204 ft 393 kts 258°
2026-04-20 02:52 40.37024 -98.63259 34207 ft 393 kts 257°
2026-04-20 02:52 40.34991 -98.69922 34206 ft 394 kts 257°
2026-04-20 02:53 40.32961 -98.76589 34187 ft 395 kts 257°
2026-04-20 02:53 40.30927 -98.83276 34180 ft 395 kts 257°
2026-04-20 02:54 40.28883 -98.89957 34194 ft 395 kts 257°
2026-04-20 02:54 40.26831 -98.96626 34190 ft 395 kts 257°
2026-04-20 02:55 40.24776 -99.03300 34190 ft 395 kts 257°
2026-04-20 02:55 40.22728 -99.09961 34151 ft 395 kts 257°
2026-04-20 02:56 40.20659 -99.16623 34148 ft 396 kts 256°
2026-04-20 02:56 40.18591 -99.23298 34163 ft 396 kts 256°
2026-04-20 02:57 40.16524 -99.29984 34171 ft 397 kts 256°
2026-04-20 02:57 40.14443 -99.36664 34172 ft 397 kts 256°
2026-04-20 02:58 40.12357 -99.43350 34166 ft 397 kts 256°
2026-04-20 02:58 40.10260 -99.50030 34138 ft 398 kts 256°
2026-04-20 02:59 40.08159 -99.56734 34144 ft 399 kts 256°
2026-04-20 02:59 40.06064 -99.63414 34130 ft 401 kts 256°
2026-04-20 03:00 40.03944 -99.70150 34130 ft 402 kts 256°
2026-04-20 03:00 40.01814 -99.76902 34133 ft 403 kts 256°
2026-04-20 03:01 39.99671 -99.83651 34103 ft 403 kts 256°
2026-04-20 03:01 39.97526 -99.90409 34129 ft 404 kts 256°
2026-04-20 03:02 39.95375 -99.97178 34138 ft 406 kts 255°
2026-04-20 03:02 39.93197 -100.03974 34145 ft 406 kts 255°
2026-04-20 03:03 39.91021 -100.10777 34149 ft 407 kts 255°
2026-04-20 03:03 39.88836 -100.17559 34149 ft 407 kts 255°
2026-04-20 03:04 39.86650 -100.24366 34134 ft 407 kts 255°
2026-04-20 03:04 39.84461 -100.31165 34129 ft 408 kts 255°
2026-04-20 03:05 39.82260 -100.37977 34133 ft 408 kts 255°
2026-04-20 03:05 39.80781 -100.42530 34136 ft 409 kts 255°
2026-04-20 03:06 39.78123 -100.50709 34147 ft 409 kts 255°
2026-04-20 03:06 39.75914 -100.57525 34089 ft 409 kts 254°
2026-04-20 03:07 39.73697 -100.64337 34141 ft 410 kts 254°
2026-04-20 03:07 39.71442 -100.71253 34142 ft 422 kts 253°
2026-04-20 03:08 39.69123 -100.78356 34130 ft 433 kts 253°
2026-04-20 03:08 39.66737 -100.85602 34160 ft 440 kts 253°
2026-04-20 03:09 39.64316 -100.92912 34163 ft 442 kts 253°
2026-04-20 03:09 39.61879 -101.00272 34136 ft 442 kts 253°
2026-04-20 03:10 39.59459 -101.07597 34137 ft 442 kts 253°
2026-04-20 03:10 39.57027 -101.14929 34142 ft 442 kts 253°
2026-04-20 03:11 39.54589 -101.22253 34145 ft 443 kts 253°
2026-04-20 03:11 39.52147 -101.29574 34111 ft 443 kts 253°
2026-04-20 03:12 39.49695 -101.36885 34075 ft 443 kts 252°
2026-04-20 03:12 39.47236 -101.44209 34082 ft 444 kts 252°
2026-04-20 03:13 39.44774 -101.51539 34074 ft 444 kts 252°
2026-04-20 03:13 39.42304 -101.58847 34090 ft 444 kts 252°
2026-04-20 03:14 39.39827 -101.66160 34094 ft 443 kts 252°
2026-04-20 03:14 39.37276 -101.73438 34139 ft 447 kts 250°
2026-04-20 03:15 39.34508 -101.80654 34136 ft 449 kts 249°
2026-04-20 03:15 39.31675 -101.87844 34125 ft 449 kts 249°
2026-04-20 03:16 39.28874 -101.95049 34118 ft 449 kts 249°
2026-04-20 03:16 39.26097 -102.02263 34110 ft 449 kts 249°
2026-04-20 03:17 39.23320 -102.09469 34091 ft 449 kts 249°
2026-04-20 03:17 39.20532 -102.16691 34082 ft 450 kts 249°
2026-04-20 03:18 39.17726 -102.23905 34144 ft 450 kts 249°
2026-04-20 03:18 39.14910 -102.31112 34123 ft 451 kts 249°
2026-04-20 03:19 39.12091 -102.38320 34136 ft 450 kts 248°
2026-04-20 03:19 39.09275 -102.45525 34126 ft 450 kts 249°
2026-04-20 03:20 39.06474 -102.52681 34123 ft 450 kts 249°
2026-04-20 03:20 39.03653 -102.59867 34117 ft 450 kts 249°
2026-04-20 03:21 39.00821 -102.67049 34115 ft 450 kts 249°
2026-04-20 03:21 38.97991 -102.74222 34118 ft 450 kts 249°
2026-04-20 03:22 38.95140 -102.81435 34097 ft 450 kts 249°
2026-04-20 03:22 38.92293 -102.88607 34100 ft 450 kts 249°
2026-04-20 03:23 38.89462 -102.95727 34107 ft 451 kts 249°
2026-04-20 03:23 38.86610 -103.02891 34112 ft 451 kts 249°
2026-04-20 03:24 38.83751 -103.10048 34095 ft 451 kts 248°
2026-04-20 03:24 38.80881 -103.17194 34077 ft 451 kts 248°
2026-04-20 03:25 38.78012 -103.24340 34093 ft 451 kts 248°
2026-04-20 03:25 38.75144 -103.31481 34102 ft 451 kts 248°
2026-04-20 03:26 38.72261 -103.38634 34101 ft 451 kts 248°
2026-04-20 03:26 38.69373 -103.45782 34098 ft 452 kts 248°
2026-04-20 03:27 38.66479 -103.52920 34080 ft 452 kts 248°
2026-04-20 03:27 38.63585 -103.60054 34089 ft 452 kts 248°
2026-04-20 03:28 38.60687 -103.67180 34074 ft 452 kts 248°
2026-04-20 03:28 38.56327 -103.77868 34075 ft 452 kts 248°
2026-04-20 03:29 38.53409 -103.84986 34058 ft 452 kts 248°
2026-04-20 03:29 38.50489 -103.92089 34037 ft 452 kts 247°
2026-04-20 03:30 38.47575 -103.99180 34047 ft 451 kts 247°
2026-04-20 03:30 38.44658 -104.06264 34036 ft 451 kts 247°
2026-04-20 03:31 38.41733 -104.13335 34036 ft 451 kts 246°
2026-04-20 03:31 38.38806 -104.20401 34063 ft 450 kts 247°
2026-04-20 03:32 38.35900 -104.27416 34046 ft 451 kts 246°
2026-04-20 03:32 38.32945 -104.34519 34081 ft 451 kts 246°
2026-04-20 03:33 38.30011 -104.41572 34099 ft 450 kts 248°
2026-04-20 03:33 38.27939 -104.49003 34101 ft 445 kts 256°
2026-04-20 03:34 38.26097 -104.56518 34104 ft 445 kts 256°
2026-04-20 03:34 38.24245 -104.64034 34096 ft 445 kts 256°
2026-04-20 03:35 38.22393 -104.71492 34085 ft 445 kts 256°
2026-04-20 03:35 38.20521 -104.79001 34067 ft 445 kts 256°
2026-04-20 03:36 38.18648 -104.86507 34050 ft 445 kts 256°
2026-04-20 03:36 38.16782 -104.94012 34051 ft 445 kts 256°
2026-04-20 03:37 38.14905 -105.01514 34023 ft 446 kts 255°
2026-04-20 03:37 38.13022 -105.09016 34074 ft 446 kts 255°
2026-04-20 03:38 38.11129 -105.16518 34084 ft 446 kts 255°
2026-04-20 03:38 38.09230 -105.24017 34129 ft 446 kts 255°
2026-04-20 03:39 38.07325 -105.31511 34129 ft 446 kts 254°
2026-04-20 03:39 38.05419 -105.38992 34152 ft 446 kts 254°
2026-04-20 03:40 38.03505 -105.46479 34159 ft 446 kts 254°
2026-04-20 03:40 38.01596 -105.53948 34154 ft 446 kts 254°
2026-04-20 03:41 37.99681 -105.61428 34154 ft 446 kts 254°
2026-04-20 03:41 37.97752 -105.68898 34157 ft 446 kts 253°
2026-04-20 03:42 37.95825 -105.76354 34161 ft 445 kts 253°
2026-04-20 03:42 37.93897 -105.83801 34151 ft 444 kts 253°
2026-04-20 03:43 37.91980 -105.91183 34146 ft 444 kts 253°
2026-04-20 03:43 37.90042 -105.98596 34146 ft 444 kts 253°
2026-04-20 03:44 37.88103 -106.06011 34184 ft 443 kts 253°
2026-04-20 03:44 37.86164 -106.13420 34226 ft 443 kts 253°
2026-04-20 03:45 37.84213 -106.20823 34264 ft 444 kts 253°
2026-04-20 03:45 37.82262 -106.28227 34285 ft 444 kts 253°
2026-04-20 03:46 37.80307 -106.35630 34299 ft 444 kts 253°
2026-04-20 03:46 37.78341 -106.43046 34296 ft 445 kts 252°
2026-04-20 03:47 37.76365 -106.50468 34286 ft 446 kts 252°
2026-04-20 03:47 37.74382 -106.57897 34276 ft 446 kts 253°
2026-04-20 03:48 37.72397 -106.65327 34277 ft 447 kts 252°
2026-04-20 03:48 37.70405 -106.72760 34266 ft 447 kts 252°
2026-04-20 03:49 37.68402 -106.80208 34253 ft 448 kts 252°
2026-04-20 03:49 37.66393 -106.87655 34242 ft 449 kts 251°
2026-04-20 03:50 37.64380 -106.95072 34237 ft 450 kts 252°
2026-04-20 03:50 37.62349 -107.02555 34252 ft 451 kts 251°
2026-04-20 03:51 37.60312 -107.10051 34259 ft 452 kts 251°
2026-04-20 03:51 37.58263 -107.17563 34268 ft 453 kts 251°
2026-04-20 03:52 37.56209 -107.25076 34255 ft 454 kts 251°
2026-04-20 03:52 37.54490 -107.31327 34257 ft 454 kts 251°
2026-04-20 03:53 37.52415 -107.38838 34253 ft 454 kts 251°
2026-04-20 03:53 37.50341 -107.46352 34246 ft 454 kts 251°
2026-04-20 03:54 37.48266 -107.53855 34242 ft 454 kts 251°
2026-04-20 03:54 37.46184 -107.61349 34215 ft 453 kts 250°
2026-04-20 03:55 37.44099 -107.68838 34215 ft 453 kts 250°
2026-04-20 03:55 37.42016 -107.76322 34209 ft 453 kts 250°
2026-04-20 03:56 37.39918 -107.83802 34202 ft 454 kts 250°
2026-04-20 03:56 37.37819 -107.91280 34186 ft 454 kts 250°
2026-04-20 03:57 37.35713 -107.98764 34172 ft 454 kts 250°
2026-04-20 03:57 37.33604 -108.06241 34157 ft 454 kts 250°
2026-04-20 03:58 37.31487 -108.13716 34158 ft 454 kts 250°
2026-04-20 03:58 37.29366 -108.21196 34152 ft 455 kts 250°
2026-04-20 03:59 37.27240 -108.28671 34172 ft 454 kts 250°
2026-04-20 03:59 37.25110 -108.36139 34146 ft 454 kts 250°
2026-04-20 04:00 37.22971 -108.43594 34141 ft 454 kts 250°
2026-04-20 04:00 37.20829 -108.51055 34133 ft 455 kts 250°
2026-04-20 04:01 37.18683 -108.58514 34110 ft 455 kts 250°
2026-04-20 04:01 37.16533 -108.65969 34110 ft 455 kts 250°
2026-04-20 04:02 37.14371 -108.73436 34083 ft 456 kts 250°
2026-04-20 04:02 37.12206 -108.80903 34078 ft 456 kts 249°
2026-04-20 04:03 37.10030 -108.88367 34072 ft 456 kts 249°
2026-04-20 04:03 37.07862 -108.95783 34072 ft 456 kts 249°
2026-04-20 04:04 37.05684 -109.03243 34067 ft 456 kts 249°
2026-04-20 04:04 37.03501 -109.10694 34072 ft 456 kts 249°
2026-04-20 04:05 37.01311 -109.18137 34069 ft 456 kts 248°
2026-04-20 04:05 36.99111 -109.25584 34069 ft 456 kts 248°
2026-04-20 04:06 36.96915 -109.33024 34057 ft 456 kts 249°
2026-04-20 04:06 36.94719 -109.40471 34055 ft 456 kts 248°
2026-04-20 04:07 36.92507 -109.47903 34069 ft 456 kts 248°
2026-04-20 04:07 36.90285 -109.55323 34060 ft 455 kts 248°
2026-04-20 04:08 36.88070 -109.62729 34058 ft 455 kts 248°
2026-04-20 04:08 36.85862 -109.70122 34050 ft 454 kts 248°
2026-04-20 04:09 36.83645 -109.77510 34048 ft 454 kts 248°
2026-04-20 04:09 36.81420 -109.84880 34048 ft 452 kts 248°
2026-04-20 04:10 36.79232 -109.92125 34027 ft 442 kts 248°
2026-04-20 04:10 36.77058 -109.99286 34027 ft 441 kts 248°
2026-04-20 04:11 36.74885 -110.06438 34026 ft 441 kts 248°
2026-04-20 04:11 36.72724 -110.13536 34026 ft 441 kts 248°
2026-04-20 04:12 36.70545 -110.20674 34047 ft 440 kts 248°
2026-04-20 04:12 36.68373 -110.27788 34050 ft 439 kts 248°
2026-04-20 04:13 36.66194 -110.34882 34125 ft 438 kts 248°
2026-04-20 04:13 36.65102 -110.38431 34240 ft 440 kts 248°
2026-04-20 04:13 36.64005 -110.41993 34360 ft 441 kts 248°
2026-04-20 04:14 36.62908 -110.45556 34488 ft 441 kts 248°
2026-04-20 04:14 36.61811 -110.49124 34605 ft 441 kts 248°
2026-04-20 04:14 36.60713 -110.52691 34737 ft 441 kts 248°
2026-04-20 04:14 36.59612 -110.56256 34875 ft 441 kts 248°
2026-04-20 04:15 36.58509 -110.59820 35011 ft 441 kts 248°
2026-04-20 04:15 36.57412 -110.63366 35143 ft 441 kts 248°
2026-04-20 04:15 36.56309 -110.66925 35274 ft 440 kts 248°
2026-04-20 04:15 36.55204 -110.70483 35416 ft 440 kts 248°
2026-04-20 04:16 36.54097 -110.74031 35540 ft 440 kts 248°
2026-04-20 04:16 36.52989 -110.77569 35679 ft 439 kts 248°
2026-04-20 04:16 36.51879 -110.81111 35821 ft 439 kts 248°
2026-04-20 04:16 36.50775 -110.84644 35966 ft 439 kts 248°
2026-04-20 04:17 36.48561 -110.91726 35983 ft 440 kts 248°
2026-04-20 04:17 36.46341 -110.98803 35988 ft 440 kts 248°
2026-04-20 04:18 36.44124 -111.05872 35991 ft 439 kts 248°
2026-04-20 04:18 36.41901 -111.12938 35982 ft 439 kts 248°
2026-04-20 04:19 36.39666 -111.20004 35985 ft 440 kts 248°
2026-04-20 04:19 36.37448 -111.27025 35990 ft 440 kts 247°
2026-04-20 04:20 36.35187 -111.34147 35999 ft 441 kts 247°
2026-04-20 04:20 36.32946 -111.41177 35997 ft 441 kts 247°
2026-04-20 04:21 36.30690 -111.48246 35999 ft 441 kts 247°
2026-04-20 04:21 36.28435 -111.55289 36005 ft 441 kts 247°
2026-04-20 04:22 36.26164 -111.62359 36003 ft 441 kts 247°
2026-04-20 04:22 36.23892 -111.69424 36008 ft 441 kts 247°
2026-04-20 04:23 36.21615 -111.76489 36006 ft 441 kts 247°
2026-04-20 04:23 36.19337 -111.83542 36028 ft 441 kts 247°
2026-04-20 04:24 36.17057 -111.90595 36085 ft 441 kts 247°
2026-04-20 04:24 36.14768 -111.97639 36130 ft 441 kts 247°
2026-04-20 04:25 36.12478 -112.04687 36168 ft 441 kts 247°
2026-04-20 04:25 36.10187 -112.11724 36201 ft 441 kts 247°
2026-04-20 04:26 36.07892 -112.18749 36206 ft 441 kts 246°
2026-04-20 04:26 36.05587 -112.25791 36187 ft 442 kts 246°
2026-04-20 04:27 36.03282 -112.32831 36163 ft 442 kts 246°
2026-04-20 04:27 36.00962 -112.39862 36131 ft 442 kts 246°
2026-04-20 04:28 35.98640 -112.46891 36105 ft 443 kts 246°
2026-04-20 04:28 35.97472 -112.50421 36002 ft 443 kts 246°
2026-04-20 04:28 35.96304 -112.53943 35988 ft 443 kts 246°
2026-04-20 04:29 35.93968 -112.60996 35987 ft 444 kts 246°
2026-04-20 04:29 35.91629 -112.68057 36007 ft 445 kts 246°
2026-04-20 04:30 35.89298 -112.75066 36002 ft 445 kts 246°
2026-04-20 04:30 35.86943 -112.82132 35997 ft 446 kts 246°
2026-04-20 04:31 35.84568 -112.89204 35985 ft 447 kts 246°
2026-04-20 04:31 35.82188 -112.96291 35991 ft 447 kts 246°
2026-04-20 04:32 35.79814 -113.03371 35983 ft 448 kts 246°
2026-04-20 04:32 35.77425 -113.10462 35984 ft 448 kts 246°
2026-04-20 04:33 35.75034 -113.17544 35971 ft 449 kts 246°
2026-04-20 04:33 35.72629 -113.24649 35960 ft 449 kts 246°
2026-04-20 04:34 35.70222 -113.31743 35954 ft 450 kts 246°
2026-04-20 04:34 35.67811 -113.38840 35947 ft 450 kts 246°
2026-04-20 04:35 35.65394 -113.45944 35946 ft 450 kts 245°
2026-04-20 04:35 35.62962 -113.53037 35938 ft 450 kts 245°
2026-04-20 04:36 35.58859 -113.63363 35927 ft 449 kts 240°
2026-04-20 04:37 35.55849 -113.70105 35930 ft 449 kts 240°
2026-04-20 04:37 35.52892 -113.76853 35953 ft 449 kts 240°
2026-04-20 04:38 35.50022 -113.83593 35966 ft 449 kts 241°
2026-04-20 04:38 35.47140 -113.90377 35982 ft 449 kts 241°
2026-04-20 04:39 35.44233 -113.97161 35999 ft 448 kts 241°
2026-04-20 04:39 35.41325 -114.03911 36005 ft 448 kts 241°
2026-04-20 04:40 35.38410 -114.10666 36005 ft 448 kts 241°
2026-04-20 04:40 35.35487 -114.17410 35986 ft 448 kts 241°
2026-04-20 04:41 35.33057 -114.23014 35966 ft 448 kts 241°
2026-04-20 04:41 35.30140 -114.29755 35935 ft 448 kts 241°
2026-04-20 04:42 35.27214 -114.36489 35905 ft 448 kts 241°
2026-04-20 04:42 35.24282 -114.43212 35882 ft 448 kts 240°
2026-04-20 04:43 35.21351 -114.49919 35861 ft 447 kts 240°
2026-04-20 04:43 35.18414 -114.56621 35860 ft 447 kts 240°
2026-04-20 04:44 35.15479 -114.63321 35877 ft 447 kts 240°
2026-04-20 04:44 35.12547 -114.70018 35877 ft 447 kts 240°
2026-04-20 04:45 35.09605 -114.76711 35890 ft 448 kts 240°
2026-04-20 04:45 35.06649 -114.83405 35898 ft 448 kts 240°
2026-04-20 04:46 35.03692 -114.90096 35890 ft 448 kts 240°
2026-04-20 04:46 35.00763 -114.96812 35898 ft 449 kts 241°
2026-04-20 04:47 34.97867 -115.03550 35921 ft 449 kts 242°
2026-04-20 04:47 34.94952 -115.10288 35916 ft 449 kts 242°
2026-04-20 04:48 34.92018 -115.17020 35928 ft 450 kts 242°
2026-04-20 04:48 34.89084 -115.23753 35927 ft 450 kts 242°
2026-04-20 04:49 34.86179 -115.30416 35901 ft 440 kts 242°
2026-04-20 04:49 34.84767 -115.33647 35904 ft 426 kts 242°
2026-04-20 04:49 34.83383 -115.36811 35907 ft 422 kts 242°
2026-04-20 04:50 34.80626 -115.43098 35904 ft 421 kts 242°
2026-04-20 04:50 34.77951 -115.49436 35904 ft 421 kts 245°
2026-04-20 04:51 34.75581 -115.55938 35904 ft 420 kts 247°
2026-04-20 04:51 34.73279 -115.62471 35904 ft 420 kts 247°
2026-04-20 04:52 34.70916 -115.68981 35905 ft 421 kts 247°
2026-04-20 04:52 34.68509 -115.75469 35904 ft 421 kts 246°
2026-04-20 04:53 34.66093 -115.81955 35911 ft 422 kts 246°
2026-04-20 04:53 34.63677 -115.88441 35900 ft 422 kts 247°
2026-04-20 04:54 34.61273 -115.94942 35909 ft 422 kts 247°
2026-04-20 04:54 34.58884 -116.01446 35918 ft 422 kts 247°
2026-04-20 04:55 34.56497 -116.07943 35916 ft 421 kts 247°
2026-04-20 04:55 34.54098 -116.14420 35921 ft 421 kts 247°
2026-04-20 04:56 34.51705 -116.20852 35824 ft 426 kts 247°
2026-04-20 04:56 34.50468 -116.24176 35586 ft 438 kts 247°
2026-04-20 04:56 34.49206 -116.27567 34978 ft 443 kts 248°
2026-04-20 04:56 34.47937 -116.30982 34186 ft 445 kts 248°
2026-04-20 04:57 34.46661 -116.34417 33251 ft 449 kts 248°
2026-04-20 04:57 34.45371 -116.37877 32467 ft 449 kts 248°
2026-04-20 04:57 34.44936 -116.39040 32329 ft 447 kts 248°
2026-04-20 04:58 34.41450 -116.48338 30772 ft 438 kts 248°
2026-04-20 04:58 34.40149 -116.51669 30168 ft 437 kts 246°
2026-04-20 04:58 34.38803 -116.54961 29516 ft 435 kts 246°
2026-04-20 04:58 34.37444 -116.58202 28950 ft 431 kts 245°
2026-04-20 04:59 34.36079 -116.61427 28367 ft 427 kts 245°
2026-04-20 04:59 34.34734 -116.64616 27804 ft 423 kts 245°
2026-04-20 04:59 34.33412 -116.67779 27244 ft 420 kts 245°
2026-04-20 04:59 34.32120 -116.70921 26791 ft 413 kts 245°
2026-04-20 05:00 34.30862 -116.74042 26243 ft 411 kts 245°
2026-04-20 05:00 34.29626 -116.77141 25652 ft 410 kts 245°
2026-04-20 05:00 34.28399 -116.80220 25168 ft 405 kts 245°
2026-04-20 05:00 34.27178 -116.83275 24692 ft 401 kts 244°
2026-04-20 05:01 34.25962 -116.86302 24142 ft 399 kts 244°
2026-04-20 05:01 34.24754 -116.89301 23691 ft 395 kts 244°
2026-04-20 05:01 34.23564 -116.92251 23263 ft 388 kts 244°
2026-04-20 05:01 34.22380 -116.95181 22659 ft 386 kts 243°
2026-04-20 05:02 34.21231 -116.98080 22198 ft 380 kts 247°
2026-04-20 05:02 34.20388 -117.01055 22043 ft 368 kts 251°
2026-04-20 05:02 34.19617 -117.03943 21902 ft 354 kts 251°
2026-04-20 05:02 34.18863 -117.06722 21763 ft 343 kts 250°
2026-04-20 05:03 34.18125 -117.09424 21458 ft 337 kts 251°
2026-04-20 05:03 34.17394 -117.12091 21062 ft 332 kts 250°
2026-04-20 05:03 34.16670 -117.14732 20455 ft 329 kts 250°
2026-04-20 05:03 34.15955 -117.17346 19834 ft 327 kts 250°
2026-04-20 05:04 34.15243 -117.19941 19301 ft 326 kts 250°
2026-04-20 05:04 34.14524 -117.22548 18911 ft 325 kts 249°
2026-04-20 05:04 34.13814 -117.25118 18470 ft 322 kts 249°
2026-04-20 05:04 34.13111 -117.27670 17869 ft 322 kts 249°
2026-04-20 05:05 34.12404 -117.30227 17465 ft 319 kts 249°
2026-04-20 05:05 34.11700 -117.32778 17060 ft 318 kts 249°
2026-04-20 05:05 34.11006 -117.35294 16666 ft 316 kts 249°
2026-04-20 05:05 34.10316 -117.37807 16273 ft 314 kts 249°
2026-04-20 05:06 34.09666 -117.40320 15888 ft 313 kts 250°
2026-04-20 05:06 34.09044 -117.42831 15508 ft 312 kts 251°
2026-04-20 05:06 34.08433 -117.45328 15142 ft 310 kts 251°
2026-04-20 05:06 34.07823 -117.47816 14799 ft 309 kts 251°
2026-04-20 05:07 34.07214 -117.50286 14471 ft 306 kts 250°
2026-04-20 05:07 34.06604 -117.52720 14131 ft 305 kts 250°
2026-04-20 05:07 34.05976 -117.55192 13775 ft 303 kts 250°
2026-04-20 05:07 34.05366 -117.57576 13398 ft 301 kts 250°
2026-04-20 05:08 34.04748 -117.59980 13012 ft 300 kts 250°
2026-04-20 05:08 34.04131 -117.62380 12633 ft 298 kts 250°
2026-04-20 05:08 34.03519 -117.64762 12259 ft 297 kts 250°
2026-04-20 05:08 34.02909 -117.67132 12023 ft 295 kts 250°
2026-04-20 05:09 34.02310 -117.69513 11569 ft 303 kts 253°
2026-04-20 05:09 34.02010 -117.72046 11214 ft 303 kts 261°
2026-04-20 05:09 34.01783 -117.74572 10935 ft 296 kts 260°
2026-04-20 05:09 34.01544 -117.77023 10592 ft 293 kts 260°
2026-04-20 05:10 34.01302 -117.79428 10242 ft 292 kts 260°
2026-04-20 05:10 34.01055 -117.81885 9809 ft 293 kts 260°
2026-04-20 05:10 34.00802 -117.84364 9279 ft 297 kts 260°
2026-04-20 05:10 34.00559 -117.86790 9111 ft 287 kts 260°
2026-04-20 05:11 34.00320 -117.89205 8445 ft 296 kts 260°
2026-04-20 05:11 34.00069 -117.91730 7667 ft 300 kts 260°
2026-04-20 05:11 33.99831 -117.94160 7219 ft 284 kts 260°
2026-04-20 05:11 33.99675 -117.95700 6988 ft 278 kts 260°
2026-04-20 05:12 33.99441 -117.98009 6638 ft 276 kts 260°
2026-04-20 05:12 33.99215 -118.00291 6314 ft 273 kts 260°
2026-04-20 05:12 33.98923 -118.03261 6004 ft 264 kts 260°
2026-04-20 05:12 33.98776 -118.04741 5783 ft 263 kts 261°
2026-04-20 05:13 33.98562 -118.06895 5458 ft 261 kts 261°
2026-04-20 05:13 33.98344 -118.09090 5111 ft 260 kts 261°
2026-04-20 05:13 33.98129 -118.11243 4778 ft 258 kts 261°
2026-04-20 05:13 33.97915 -118.13392 4454 ft 257 kts 261°
2026-04-20 05:14 33.97702 -118.15527 4113 ft 256 kts 261°
2026-04-20 05:14 33.97491 -118.17631 3791 ft 249 kts 262°
2026-04-20 05:14 33.97290 -118.19644 3483 ft 237 kts 262°
2026-04-20 05:14 33.97096 -118.21579 3170 ft 226 kts 262°
2026-04-20 05:15 33.96909 -118.23429 2879 ft 219 kts 262°
2026-04-20 05:15 33.96728 -118.25230 2591 ft 215 kts 262°
2026-04-20 05:15 33.96553 -118.26965 2329 ft 208 kts 262°
2026-04-20 05:15 33.96381 -118.28668 2043 ft 197 kts 262°
2026-04-20 05:16 33.96219 -118.30261 1783 ft 187 kts 263°
2026-04-20 05:16 33.96069 -118.31749 1541 ft 171 kts 262°
2026-04-20 05:16 33.95934 -118.33085 1327 ft 152 kts 262°
2026-04-20 05:16 33.95809 -118.34316 1124 ft 146 kts 262°
2026-04-20 05:17 33.95686 -118.35519 942 ft 143 kts 263°
2026-04-20 05:17 33.95565 -118.36694 754 ft 140 kts 262°
2026-04-20 05:17 33.95453 -118.37855 556 ft 138 kts 262°
2026-04-20 05:17 33.95336 -118.38985 327 ft 135 kts 262°
2026-04-20 05:18 33.95221 -118.40106 153 ft 134 kts 262°
2026-04-20 05:18 33.95110 -118.41159 96 ft 116 kts 262°
2026-04-20 05:18 33.95035 -118.41907 97 ft 64 kts 263°
2026-04-20 05:18 33.94991 -118.42261 97 ft 33 kts 250°
2026-04-20 05:19 33.94878 -118.42448 97 ft 21 kts 222°
2026-04-20 05:19 33.94787 -118.42487 100 ft 12 kts 183°
2026-04-20 05:19 33.94697 -118.42475 97 ft 17 kts 167°
2026-04-20 05:19 33.94670 -118.42355 94 ft 16 kts 83°
2026-04-20 05:20 33.94684 -118.42228 95 ft 15 kts 83°
2026-04-20 05:20 33.94694 -118.42129 95 ft 10 kts 83°
2026-04-20 05:20 33.94701 -118.42048 95 ft 9 kts 83°
2026-04-20 05:20 33.94708 -118.41977 93 ft 8 kts 83°
2026-04-20 05:21 33.94715 -118.41916 93 ft 7 kts 82°
2026-04-20 05:21 33.94722 -118.41847 93 ft 15 kts 83°
2026-04-20 05:21 33.94737 -118.41700 93 ft 17 kts 83°
2026-04-20 05:21 33.94749 -118.41582 96 ft 11 kts 83°
2026-04-20 05:22 33.94758 -118.41496 96 ft 10 kts 83°
2026-04-20 05:22 33.94767 -118.41430 95 ft 6 kts 75°
2026-04-20 05:22 33.94777 -118.41383 95 ft 5 kts 73°
2026-04-20 05:22 33.94789 -118.41326 95 ft 8 kts 79°
2026-04-20 05:23 33.94795 -118.41260 94 ft 8 kts 84°
2026-04-20 05:23 33.94800 -118.41204 95 ft 5 kts 84°
2026-04-20 05:23 33.94804 -118.41167 98 ft 4 kts 83°
2026-04-20 05:23 33.94807 -118.41139 98 ft 3 kts 83°
2026-04-20 05:24 33.94809 -118.41116 96 ft 4 kts 83°
2026-04-20 05:24 33.94814 -118.41066 95 ft 6 kts 83°
2026-04-20 05:24 33.94818 -118.41023 97 ft 5 kts 83°
2026-04-20 05:24 33.94822 -118.40986 95 ft 4 kts 83°
2026-04-20 05:25 33.94825 -118.40954 96 ft 4 kts 83°
2026-04-20 05:25 33.94828 -118.40925 96 ft 5 kts 82°
2026-04-20 05:25 33.94835 -118.40860 95 ft 8 kts 82°
2026-04-20 05:25 33.94843 -118.40795 94 ft 7 kts 82°
2026-04-20 05:26 33.94849 -118.40738 95 ft 6 kts 82°
2026-04-20 05:26 33.94854 -118.40691 94 ft 6 kts 82°
2026-04-20 05:26 33.94837 -118.40606 95 ft 15 kts 158°
2026-04-20 05:26 33.94770 -118.40659 94 ft 7 kts 238°
2026-04-20 05:27 33.94736 -118.40688 95 ft 4 kts 205°
2026-04-20 05:27 33.94717 -118.40698 94 ft 2 kts 204°
2026-04-20 05:27 33.94714 -118.40700 95 ft 0 kts 204°